Temp
38 32 29 35 38 39 37 33 34 39 48 46 46 46 52 55 52 52 52 53 54 55 63 61 62 62 62 62 63 64 64 64 64 62 61 61 61 63 64 65 65 63 63 63
30 25 35 40 40 40 37 35 31 39 45 44 41 42 49 54 55 55 56 54 55 55 56 59 60 61 62 63 64 64 65 64 65 66 64 63 63 64 66 68 68 67 66 65
25 32 38 36 35 36 35 33 35 36 39 42 39 38 42 49 51 53 57 56 57 56 57 57 59 60 62 62 63 65 65 64 66 66 64 64 64 63 63 63 65 66 66 65
26 34 33 32 31 34 30 39 39 37 35 28 39 31 43 48 49 51 55 55 54 57 56 58 59 57 60 62 64 66 65 64 66 65 65 66 67 64 61 63 63 63 63 63
26 29 29 28 31 36 33 40 37 37 35 32 32 32 35 44 46 51 53 56 54 59 57 57 55 56 53 57 60 61 63 62 63 64 67 66 66 65 65 65 64 64 64 63
29 34 33 34 34 35 40 35 35 35 33 24 34 32 31 36 46 49 53 56 59 54 53 52 49 50 50 51 54 56 56 55 59 61 62 63 63 63 63 63 62 62 63 64
26 28 32 35 30 34 34 28 23 22 22 23 38 29 39 41 43 46 51 54 57 53 50 47 47 47 48 49 51 54 54 52 56 57 58 59 59 60 61 60 61 61 62 62
13 14 28 33 31 29 32 28 24 17 19 25 33 28 38 46 49 46 44 47 49 46 47 46 47 46 47 49 52 53 53 52 53 53 53 53 54 54 54 54 55 55 55 56
16 18 32 33 34 35 28 26 34 25 23 20 28 37 41 40 40 42 43 44 44 45 45 45 44 44 43 45 46 50 50 49 49 49 50 50 50 48 48 49 50 50 50 53
27 18 29 33 35 36 33 35 26 27 18 14 24 30 34 36 39 40 40 39 41 44 44 43 43 43 44 46 47 47 48 47 48 48 48 48 48 48 48 47 46 47 48 48
29 26 26 28 23 26 28 26 30 28 27 21 17 23 33 40 41 42 40 39 39 40 41 42 43 43 43 44 45 45 45 46 46 46 46 46 46 46 45 45 45 45 46 46
29 26 20 20 31 36 33 30 29 22 23 28 27 28 34 35 36 38 37 37 38 40 39 39 41 42 41 42 43 43 44 43 43 43 43 43 43 43 43 42 43 43 43 44
24 18 13 15 26 31 28 31 31 32 30 24 22 25 35 34 34 35 35 36 37 37 38 39 39 39 38 39 40 42 42 41 41 40 40 40 39 39 39 39 40 40 40 40
31 22 20 11 15 23 23 24 30 29 25 26 27 28 31 31 32 33 33 34 35 36 37 36 36 36 37 36 36 37 37 38 37 37 37 36 36 36 36 36 37 37 37 37
23 15 15 22 24 24 24 26 27 25 26 23 28 33 35 32 32 33 34 34 35 35 34 34 34 34 34 34 34 34 34 35 35 35 34 33 33 34 34 34 33 33 33 34
24 14 17 15 25 26 25 25 26 27 27 26 26 25 35 32 32 31 35 35 35 34 34 35 36 34 33 33 32 33 32 32 33 32 31 31 31 31 30 31 30 31 31 31
23 21 14 13 24 24 15 24 22 23 28 28 22 33 35 31 34 33 33 35 35 34 34 35 34 33 32 31 32 30 30 31 31 30 30 30 30 30 29 29 29 29 29 29
24 20 16 12 14 6 25 31 30 27 30 31 32 34 37 37 37 35 35 35 34 34 33 32 31 30 30 31 30 30 30 30 29 28 28 28 28 28 28 28 27 27 27 27
28 24 16 2 -3 17 26 28 25 26 26 33 30 36 36 37 38 32 35 34 35 34 33 32 31 30 28 28 29 29 29 29 29 28 27 26 26 26 26 26 24 25 25 25
25 24 18 3 -1 3 23 29 32 31 24 33 36 35 34 39 32 34 34 35 34 33 32 31 30 29 29 28 29 29 28 28 27 26 25 25 25 24 23 23 24 24 24 26
16 15 14 13 1 15 30 32 32 21 25 34 36 38 38 38 37 36 35 33 33 32 31 30 29 30 29 28 29 28 27 27 26 25 25 24 23 23 23 23 23 22 22 23
9 5 3 -2 -3 11 30 32 26 31 34 33 33 32 33 31 31 33 32 31 31 29 30 29 28 28 27 28 28 27 26 25 22 21 20 19 19 22 23 20 20 20 20 19
10 19 12 15 16 29 30 31 34 34 34 33 33 32 32 31 30 31 30 30 30 29 30 28 28 27 26 26 26 26 25 23 20 16 14 14 16 20 21 18 18 16 16 15
18 23 17 17 25 26 30 32 32 35 35 32 34 34 33 32 33 32 31 30 30 29 28 27 26 26 25 24 25 25 23 21 16 13 14 15 15 15 16 18 18 15 14 14
22 20 17 17 26 27 31 30 33 34 32 32 32 32 34 34 32 32 31 30 29 28 27 26 25 25 25 23 22 17 19 17 15 14 13 13 13 11 13 15 15 17 18 19
22 22 22 20 27 28 30 29 32 32 32 32 33 31 31 32 32 30 29 29 28 27 24 23 23 21 21 19 17 15 14 14 11 11 11 11 11 10 11 11 11 21 24 26
MSLP
1022.02 1021.84 1021.25 1021.12 1020.55 1020.14 1019.97 1019.67 1018.84 1017.75 1016.57 1016.26 1015.27 1014.97 1014.06 1013.89 1013.91 1013.98 1013.68 1013.82 1013.84 1013.82 1012.98 1013.72 1014.13 1014.77 1015.04 1015.58 1015.91 1016.38 1016.80 1017.18 1017.95 1018.70 1019.47 1019.81 1020.01 1020.17 1020.26 1020.26 1020.54 1020.81 1021.03 1021.31
1023.04 1022.67 1022.02 1021.42 1021.03 1020.54 1020.18 1019.94 1019.44 1018.27 1017.26 1016.96 1015.93 1014.94 1014.09 1013.32 1013.19 1013.12 1013.27 1013.27 1013.14 1013.19 1013.19 1013.30 1013.64 1014.13 1014.45 1014.70 1015.11 1015.58 1016.05 1016.74 1017.19 1017.85 1018.26 1018.73 1019.17 1019.39 1019.37 1019.34 1019.61 1020.01 1020.31 1020.58
1023.74 1022.72 1022.23 1022.09 1021.61 1021.18 1020.48 1019.97 1019.91 1019.60 1018.34 1017.17 1016.51 1014.91 1013.96 1012.77 1012.80 1012.56 1012.22 1012.43 1012.59 1012.71 1012.79 1012.85 1013.13 1013.35 1013.74 1014.13 1014.11 1014.66 1015.33 1016.03 1016.55 1017.15 1017.73 1018.22 1018.60 1019.06 1019.21 1019.32 1019.30 1019.46 1019.78 1019.99
1024.02 1023.29 1022.90 1022.54 1022.13 1021.73 1020.80 1020.34 1020.02 1019.70 1019.87 1018.48 1017.11 1013.81 1012.29 1012.09 1011.92 1011.43 1011.50 1011.81 1012.10 1012.38 1012.54 1012.69 1012.74 1012.92 1013.23 1013.22 1013.59 1014.05 1014.76 1015.60 1016.03 1016.68 1017.26 1017.53 1017.72 1018.35 1018.63 1018.69 1018.97 1019.10 1019.24 1019.44
1024.10 1023.43 1023.10 1022.70 1022.06 1021.89 1020.91 1020.57 1020.29 1019.59 1019.41 1019.30 1017.57 1016.17 1010.78 1011.63 1010.52 1009.69 1010.91 1011.13 1011.50 1011.70 1011.89 1012.43 1012.61 1012.66 1013.09 1013.35 1013.55 1013.79 1014.38 1015.15 1015.72 1016.28 1016.76 1017.22 1017.53 1017.77 1018.15 1018.55 1018.86 1018.94 1018.93 1019.14
1023.94 1023.53 1023.07 1022.45 1022.34 1021.81 1021.42 1020.97 1020.42 1020.00 1019.78 1018.87 1015.89 1015.97 1011.37 1010.65 1009.33 1009.90 1009.98 1010.18 1010.65 1011.34 1011.86 1012.49 1013.00 1013.06 1013.41 1013.70 1013.98 1014.12 1014.82 1015.53 1015.77 1016.25 1016.67 1017.07 1017.49 1017.78 1018.14 1018.46 1018.71 1018.89 1018.99 1018.90
1024.23 1023.02 1022.44 1022.36 1022.47 1021.76 1021.29 1021.37 1020.37 1019.95 1018.62 1015.67 1015.14 1015.88 1010.13 1010.02 1009.97 1009.69 1009.36 1009.80 1010.18 1010.90 1011.62 1012.77 1013.46 1013.61 1013.89 1014.32 1014.58 1014.84 1015.33 1015.91 1016.22 1016.53 1017.14 1017.44 1017.79 1017.97 1018.32 1018.64 1018.82 1018.93 1019.03 1019.12
1024.68 1023.22 1021.93 1021.71 1021.40 1020.97 1020.70 1020.54 1019.46 1018.36 1017.54 1014.52 1015.38 1013.65 1011.01 1009.94 1010.11 1010.16 1010.10 1010.42 1010.81 1011.65 1012.28 1013.01 1013.66 1014.17 1014.34 1014.75 1015.11 1015.53 1015.92 1016.42 1016.91 1017.21 1017.68 1018.05 1018.29 1018.59 1019.06 1019.33 1019.29 1019.48 1019.86 1020.09
1024.51 1023.08 1021.16 1020.72 1020.33 1020.77 1020.38 1019.89 1019.06 1018.97 1017.46 1015.87 1014.30 1012.53 1011.54 1010.99 1010.89 1010.95 1011.13 1011.29 1012.02 1012.26 1013.17 1013.43 1014.18 1014.77 1015.02 1015.50 1015.77 1016.04 1016.41 1016.89 1017.52 1018.02 1018.37 1018.77 1019.13 1019.58 1019.78 1020.03 1020.22 1020.39 1020.44 1020.34
1024.19 1022.99 1021.37 1020.57 1020.56 1020.22 1019.61 1019.45 1019.38 1018.69 1017.38 1015.75 1013.79 1012.33 1011.79 1011.69 1011.72 1011.82 1012.27 1012.66 1012.92 1013.38 1013.74 1014.58 1014.90 1015.39 1015.84 1016.22 1016.67 1016.86 1017.11 1017.40 1018.18 1018.33 1018.76 1019.15 1019.30 1020.17 1020.39 1020.54 1020.88 1021.18 1021.07 1020.95
1024.41 1023.26 1021.88 1021.29 1020.06 1019.24 1019.83 1019.51 1019.02 1018.06 1016.81 1015.63 1014.36 1012.73 1011.95 1011.95 1012.03 1012.25 1012.88 1013.54 1013.82 1014.48 1014.94 1015.62 1015.98 1016.00 1016.49 1017.12 1017.73 1017.57 1017.86 1018.25 1018.85 1018.44 1019.80 1020.37 1020.24 1020.14 1020.83 1021.40 1021.70 1021.57 1021.40 1021.42
1024.36 1023.68 1022.34 1021.17 1019.74 1019.01 1019.12 1018.82 1018.63 1018.09 1016.61 1015.59 1014.70 1013.01 1012.57 1012.65 1012.74 1013.03 1013.79 1014.18 1014.77 1015.05 1015.50 1016.47 1017.43 1017.26 1017.78 1017.86 1018.01 1018.50 1019.07 1019.07 1019.49 1020.06 1020.87 1020.61 1021.27 1020.76 1021.23 1022.03 1021.89 1022.08 1021.62 1021.98
1024.74 1023.99 1023.24 1021.68 1020.78 1019.90 1019.46 1018.52 1018.50 1017.67 1017.12 1015.99 1015.28 1013.78 1013.56 1013.44 1013.54 1013.94 1014.77 1015.19 1015.79 1016.18 1016.31 1017.15 1017.98 1018.50 1018.81 1018.90 1018.88 1019.15 1019.61 1019.80 1020.12 1021.38 1021.47 1021.99 1021.42 1021.62 1022.16 1022.21 1022.44 1022.34 1022.43 1022.47
1024.91 1024.49 1023.84 1022.85 1021.40 1020.55 1019.79 1018.74 1017.91 1017.36 1016.57 1015.29 1015.45 1015.17 1014.27 1014.95 1014.01 1014.43 1015.29 1016.06 1016.58 1016.87 1017.04 1017.75 1018.64 1019.53 1019.83 1019.98 1020.21 1020.40 1020.83 1020.96 1021.55 1022.23 1022.33 1021.94 1021.79 1022.43 1022.31 1022.77 1023.03 1022.96 1023.05 1023.15
1025.03 1024.49 1023.61 1022.42 1021.52 1020.69 1019.64 1018.65 1017.99 1017.53 1016.99 1015.98 1014.86 1014.49 1013.84 1014.42 1015.86 1014.77 1015.09 1016.11 1016.99 1017.48 1018.07 1018.82 1019.50 1020.02 1020.41 1020.64 1021.06 1021.30 1021.64 1022.03 1022.44 1022.31 1021.95 1022.57 1022.53 1022.89 1023.10 1023.13 1023.38 1023.30 1023.28 1023.33
1024.94 1024.36 1023.58 1022.14 1020.43 1019.74 1018.95 1018.08 1017.61 1017.14 1016.70 1016.07 1014.95 1014.66 1013.36 1014.33 1015.55 1016.12 1015.64 1016.30 1017.20 1017.88 1018.73 1019.38 1019.96 1020.58 1021.08 1021.33 1021.64 1021.92 1022.05 1022.14 1022.04 1022.16 1022.68 1023.11 1023.28 1023.46 1023.75 1024.03 1024.03 1023.84 1023.93 1023.77
1025.15 1024.75 1024.28 1022.58 1021.07 1019.93 1018.45 1016.24 1016.27 1015.97 1015.34 1015.07 1014.96 1013.19 1013.31 1014.28 1014.90 1015.57 1015.83 1016.39 1017.30 1018.05 1018.69 1019.63 1020.36 1020.90 1021.30 1021.59 1021.88 1022.22 1022.24 1022.02 1022.44 1022.61 1023.24 1023.63 1023.80 1023.98 1024.31 1024.36 1024.42 1024.54 1024.62 1024.20
1024.82 1025.17 1025.04 1023.73 1022.04 1020.10 1016.35 1015.12 1014.97 1015.20 1014.46 1014.24 1013.71 1012.73 1012.44 1012.11 1013.79 1015.32 1015.93 1016.47 1017.29 1018.03 1018.89 1019.84 1020.53 1021.22 1021.65 1021.46 1021.61 1021.97 1022.07 1022.23 1022.79 1023.42 1023.89 1024.26 1024.32 1024.48 1024.74 1024.91 1024.86 1024.57 1024.48 1024.31
1024.79 1025.28 1025.51 1025.21 1023.68 1019.36 1015.45 1015.33 1015.01 1015.06 1013.14 1012.01 1012.31 1012.52 1012.45 1013.06 1013.90 1015.59 1016.16 1016.77 1017.36 1018.14 1018.96 1019.64 1020.47 1021.19 1021.43 1021.35 1021.69 1021.96 1022.25 1022.79 1023.33 1023.80 1024.29 1024.56 1024.70 1024.80 1024.89 1024.98 1024.93 1024.77 1024.85 1025.04
1025.34 1025.42 1025.68 1025.55 1024.20 1020.17 1015.94 1014.63 1014.32 1014.61 1012.92 1011.49 1010.93 1011.53 1012.03 1012.93 1014.28 1015.12 1016.14 1016.61 1017.67 1018.43 1019.13 1019.65 1020.14 1020.74 1021.16 1021.66 1021.99 1022.31 1022.82 1023.10 1023.72 1024.28 1024.59 1024.74 1024.65 1024.67 1024.86 1025.22 1025.38 1025.68 1025.44 1025.12
1026.05 1025.87 1025.71 1025.38 1024.04 1019.30 1015.53 1014.55 1014.44 1014.35 1013.45 1011.76 1011.34 1011.25 1011.75 1012.73 1013.33 1014.27 1015.57 1016.78 1017.69 1018.40 1019.10 1019.75 1020.44 1021.01 1021.58 1022.01 1022.49 1022.94 1023.33 1023.73 1024.06 1024.46 1024.74 1024.90 1025.25 1025.44 1025.60 1025.81 1025.89 1025.68 1025.48 1025.26
1025.09 1025.28 1025.40 1025.17 1023.21 1018.91 1015.26 1014.48 1014.32 1013.72 1012.67 1012.35 1012.30 1012.64 1012.99 1013.41 1014.38 1014.76 1015.80 1017.14 1018.18 1018.89 1019.64 1020.28 1020.88 1021.41 1021.84 1022.27 1022.72 1023.16 1023.49 1023.86 1024.26 1024.60 1024.97 1025.36 1025.55 1025.63 1025.78 1026.01 1025.90 1025.79 1025.74 1025.60
1023.85 1022.35 1022.15 1022.12 1019.04 1015.87 1014.95 1014.70 1014.02 1013.64 1013.44 1012.83 1012.89 1013.29 1013.52 1014.19 1015.03 1015.58 1016.69 1017.66 1018.48 1019.04 1019.72 1020.41 1020.97 1021.73 1022.24 1022.61 1022.91 1023.23 1023.38 1023.78 1024.43 1025.10 1025.46 1025.50 1025.68 1025.98 1026.14 1026.01 1025.92 1026.08 1026.04 1025.57
1022.02 1021.04 1020.90 1020.16 1016.49 1015.50 1014.41 1014.04 1014.02 1013.59 1013.29 1013.02 1013.30 1013.66 1013.89 1014.62 1015.38 1016.24 1017.18 1018.10 1018.75 1019.39 1020.00 1020.48 1021.10 1021.61 1021.99 1022.22 1022.59 1022.84 1023.34 1023.94 1024.76 1025.48 1025.78 1025.94 1026.18 1026.14 1026.17 1026.07 1026.04 1026.12 1025.80 1025.59
1020.50 1020.40 1019.34 1018.40 1015.96 1015.23 1014.39 1013.81 1013.51 1013.37 1013.41 1013.54 1013.78 1014.14 1014.41 1014.96 1016.00 1016.56 1017.55 1018.23 1018.69 1019.19 1019.78 1020.32 1020.75 1021.22 1021.61 1022.11 1022.73 1023.28 1023.86 1024.36 1025.04 1025.45 1025.81 1026.05 1025.99 1026.09 1026.19 1026.07 1025.98 1025.56 1025.22 1024.86
1017.82 1016.98 1017.62 1015.63 1014.26 1013.85 1013.26 1012.84 1013.08 1013.72 1013.79 1013.84 1013.84 1014.61 1014.94 1015.11 1015.84 1016.71 1017.54 1017.87 1018.47 1019.09 1019.78 1020.50 1020.92 1021.43 1021.71 1022.22 1022.88 1023.40 1023.59 1024.07 1024.95 1025.52 1025.78 1025.76 1025.99 1026.16 1026.16 1026.07 1025.57 1024.96 1024.39 1024.17
Wind_Speed
5 1 6 6 8 6 7 6 8 6 5 4 16 14 17 9 7 7 9 9 9 11 11 8 10 9 10 10 12 13 12 11 9 5 3 3 4 4 5 6 8 7 6 6
4 4 7 6 9 9 14 16 9 10 6 4 4 13 15 15 15 13 15 13 10 6 7 8 10 12 13 14 15 14 14 12 11 8 6 4 4 4 5 7 8 8 8 8
5 6 11 4 8 12 11 15 11 7 9 6 3 10 10 10 10 8 13 8 11 10 9 8 9 13 12 14 17 15 13 12 12 11 5 3 3 1 2 2 3 6 8 8
5 8 9 10 8 4 13 4 10 12 5 5 1 11 18 19 16 18 16 12 10 12 7 6 7 8 12 15 12 13 12 12 12 11 9 12 9 7 4 4 3 4 6 6
8 3 3 8 8 7 8 5 6 11 15 6 6 7 7 10 22 24 17 15 13 15 11 9 7 6 3 5 8 8 9 8 6 9 10 8 7 3 2 1 3 3 4 5
10 1 3 2 2 4 6 6 10 3 8 11 18 9 6 9 18 12 14 19 18 11 9 7 4 6 5 5 5 8 10 6 6 6 6 6 5 4 3 3 3 3 3 3
4 8 7 5 5 7 8 7 5 7 8 15 17 8 23 4 4 5 14 15 16 11 11 9 8 7 7 7 6 7 9 8 6 7 6 5 5 4 4 3 2 2 1 2
2 9 9 8 18 5 10 8 7 9 8 17 6 13 13 6 7 2 1 2 4 7 7 8 7 6 7 7 7 7 9 10 7 7 8 6 6 4 4 5 3 4 4 4
3 8 3 4 5 14 5 10 14 10 3 2 7 26 9 2 2 2 5 2 7 10 6 9 9 7 7 7 7 9 10 9 8 8 7 7 6 6 6 6 5 4 4 4
4 6 5 3 4 10 11 3 7 6 7 5 6 18 16 5 5 3 3 3 5 5 10 9 9 9 9 9 8 9 9 11 9 9 8 7 8 8 7 7 7 6 6 6
6 5 3 4 5 8 7 12 8 4 8 5 2 6 4 11 8 10 7 6 8 8 8 8 9 9 10 9 8 9 9 11 8 13 8 7 8 10 8 7 6 5 5 7
3 5 4 10 6 3 8 6 9 8 6 10 5 9 2 6 5 6 6 7 6 10 11 10 8 9 9 9 9 10 8 10 10 9 7 9 8 9 9 6 7 5 7 5
4 5 5 11 1 2 5 7 12 14 11 18 7 8 7 1 7 7 9 8 9 11 12 10 9 8 8 8 9 9 8 9 10 7 8 6 9 9 7 7 6 7 6 6
2 4 6 8 8 2 4 5 2 8 12 17 12 8 6 8 9 10 9 7 7 7 10 10 9 8 7 7 7 8 8 7 7 6 6 9 9 7 7 6 6 6 6 5
4 6 4 10 15 14 15 15 7 7 9 5 3 19 13 5 8 7 12 12 11 10 10 8 7 7 7 7 7 7 6 6 4 7 9 8 7 6 6 6 6 6 6 5
2 6 3 9 9 12 13 10 12 13 12 10 11 13 5 5 6 3 11 13 13 12 9 9 9 7 6 6 6 6 5 6 6 9 9 6 7 6 6 6 6 6 6 6
3 4 4 6 7 8 9 14 11 4 7 6 9 16 11 7 13 13 11 11 12 10 10 10 8 7 6 6 6 6 5 6 7 8 7 7 6 6 6 6 6 6 5 5
4 1 1 6 5 3 7 3 4 10 16 16 15 9 19 17 12 6 4 9 12 12 10 8 8 7 6 5 6 6 6 7 7 7 6 5 5 5 5 4 5 6 5 8
9 3 4 2 3 9 8 5 5 2 11 11 24 15 10 13 12 3 4 3 6 7 7 7 7 5 6 7 6 7 7 6 6 6 6 5 5 4 4 6 6 5 5 4
4 2 3 2 0 5 4 2 3 3 6 4 5 17 19 17 11 8 8 8 9 8 7 8 7 5 6 4 5 6 6 6 6 4 4 3 4 6 7 6 6 3 3 5
2 2 9 5 5 11 9 6 3 4 5 6 3 13 18 14 2 9 12 7 8 7 9 7 7 6 6 5 5 5 4 4 4 4 4 5 4 3 2 3 2 4 5 5
9 8 5 2 1 10 3 3 2 3 5 2 4 3 7 8 7 13 11 12 10 10 8 7 7 6 5 5 5 5 4 4 4 4 3 1 2 3 3 3 3 4 4 5
4 8 5 10 9 5 1 3 4 3 4 1 4 4 8 8 6 8 9 9 8 9 7 5 6 5 3 5 4 5 3 5 3 2 1 1 2 2 3 2 2 3 3 2
6 4 4 3 8 11 12 7 5 4 4 1 4 6 6 8 10 8 7 7 7 6 7 6 7 7 7 7 6 6 5 5 5 3 2 2 3 1 1 1 2 2 2 2
6 6 6 6 14 9 12 8 6 4 2 4 4 4 6 10 6 8 7 8 8 8 6 6 8 7 8 6 7 4 5 5 4 4 2 2 2 2 2 2 3 2 4 2
10 10 12 10 10 5 5 4 7 7 4 6 8 6 5 6 10 9 8 7 7 8 5 6 7 5 6 6 6 6 6 6 4 3 3 3 2 2 1 2 2 4 5 7
Wind_Direction
348 18 222 260 227 252 279 306 317 334 272 240 230 232 239 231 228 236 204 207 214 213 236 193 180 181 176 183 180 190 186 183 171 162 162 180 208 206 206 200 210 207 205 205
8 270 241 284 290 237 248 260 281 285 252 243 265 249 242 225 226 220 218 221 219 221 202 197 187 185 193 188 194 192 193 182 182 186 186 166 167 207 206 198 199 203 203 205
203 252 350 301 270 260 248 248 248 262 332 267 359 264 239 236 227 219 233 217 213 213 204 197 191 200 192 196 194 195 188 181 185 187 162 135 125 112 147 213 187 196 195 201
244 258 243 261 265 280 264 257 234 232 270 251 164 271 219 222 228 222 217 214 200 212 216 204 201 187 193 205 192 188 175 177 188 179 187 197 199 200 196 184 194 208 210 212
247 274 252 244 238 217 259 278 294 217 227 331 256 264 244 187 228 225 213 212 209 214 193 204 192 171 135 162 177 161 157 158 158 175 194 200 206 156 157 161 236 236 246 233
245 338 253 230 308 267 252 318 279 290 227 239 225 223 211 199 226 219 207 212 213 202 194 178 161 139 118 101 117 121 119 108 124 158 154 179 187 177 177 200 229 249 243 240
311 234 219 166 256 247 200 169 207 223 196 230 189 210 243 277 287 228 214 206 206 189 163 160 166 148 128 122 116 130 125 110 108 104 93 99 105 99 105 76 64 43 17 3
212 316 169 191 206 197 204 193 241 191 199 246 90 226 236 253 199 257 309 279 134 138 142 145 135 130 121 119 123 128 124 115 95 98 90 74 75 89 77 61 57 65 40 21
200 266 264 223 171 190 194 231 249 282 278 318 184 238 309 115 27 17 5 80 165 145 136 131 113 95 87 91 88 120 114 103 96 107 100 89 82 77 83 63 64 54 38 28
276 285 239 217 170 217 223 236 214 205 229 240 228 231 232 182 198 235 233 130 86 94 114 101 95 92 80 79 85 85 91 100 108 100 79 84 79 75 65 63 51 41 38 31
274 262 288 18 211 184 206 241 247 312 214 242 280 250 244 201 209 208 180 142 123 104 90 89 94 89 89 82 77 78 77 90 80 72 84 81 75 76 68 61 45 43 52 32
289 293 263 235 254 235 220 237 228 230 253 239 236 258 17 281 295 131 119 107 92 105 102 93 83 90 88 92 89 84 78 83 70 68 70 70 78 83 73 51 41 24 49 36
310 299 325 331 42 182 222 212 233 243 247 251 251 258 355 142 113 119 120 115 115 110 103 101 91 83 82 77 82 85 80 81 77 86 79 83 75 70 64 54 40 36 31 29
60 257 218 228 229 213 255 239 269 262 231 250 223 292 306 290 154 137 121 111 104 102 111 108 97 91 88 83 80 80 73 65 86 96 100 77 68 60 60 53 42 39 26 24
143 260 225 263 257 255 263 258 242 239 263 249 249 221 257 193 279 163 135 127 120 112 107 103 108 109 101 91 85 82 80 88 110 91 73 62 62 59 50 47 34 30 29 17
294 276 290 286 261 220 254 245 235 237 236 249 262 281 146 133 107 165 144 139 139 139 132 129 127 119 107 106 107 108 104 91 81 75 69 59 53 49 42 30 22 25 14 5
233 275 335 264 337 334 286 241 207 210 203 188 212 223 162 150 164 181 161 153 153 147 141 141 135 126 124 119 127 116 119 94 81 78 65 53 45 45 30 23 22 14 357 351
224 297 266 276 338 267 245 197 178 227 250 224 229 205 192 176 143 141 171 148 148 148 144 139 137 133 143 134 108 111 91 79 75 70 65 52 45 42 24 21 17 11 7 6
222 211 261 265 223 290 290 167 155 270 294 225 215 204 150 131 109 59 152 117 137 137 142 141 140 144 136 115 116 102 86 88 80 68 60 44 36 33 27 25 12 10 3 336
172 245 237 31 245 248 243 195 151 225 256 327 196 159 141 146 153 190 161 131 120 119 131 133 123 112 102 99 102 101 96 94 86 82 72 54 37 29 22 11 350 311 299 310
180 218 227 222 265 282 259 277 156 322 324 325 150 165 152 165 187 132 129 99 122 130 131 119 120 132 136 129 119 106 114 111 111 87 62 45 33 11 334 314 305 327 328 327
177 163 198 88 178 270 177 328 268 278 318 347 77 95 108 107 110 123 118 131 135 133 135 141 137 149 151 144 141 153 171 152 130 102 80 37 1 353 1 349 325 330 326 331
256 200 194 183 220 266 270 252 304 281 276 81 100 96 119 111 113 116 131 142 148 155 152 150 142 143 157 174 174 175 216 149 136 134 209 353 351 335 339 322 321 330 304 313
252 187 222 68 258 248 268 265 209 279 296 182 130 142 130 125 140 125 130 144 158 167 169 160 163 184 205 199 196 203 170 163 152 178 208 207 214 248 294 308 302 250 275 271
201 143 201 263 276 283 269 230 249 243 212 130 116 156 145 135 138 141 154 177 183 181 178 180 189 201 218 191 207 176 165 149 170 199 187 212 195 207 250 273 238 242 238 228
181 194 200 218 223 189 226 215 182 208 208 187 143 132 137 141 154 161 183 189 181 190 174 191 208 211 216 192 182 180 172 164 164 159 192 197 193 197 211 242 259 334 323 320